Location: Wildlife_Club
(35.6000°N, 81.4330°W)
Time: 10:44:52
(UTC-04:00)

A-11 Canister half - All Passes

Search period start: 25 June 2019 00:00
Search period end: 05 July 2019 00:00
Orbit: 1516 x 1684 km, 47.2° (Epoch: 24 June)

Date Brightness Start Highest point End Pass type
(mag) Time Alt. Az. Time Alt. Az. Time Alt. Az.
25 Jun - 08:09:50 10° SSE 08:16:15 19° SE 08:22:36 10° E daylight
25 Jun - 10:10:04 10° SW 10:20:06 70° SE 10:29:53 10° ENE daylight
25 Jun - 12:15:48 10° W 12:25:33 53° NNW 12:35:00 10° NE daylight
25 Jun - 14:23:08 10° WNW 14:32:20 42° N 14:41:14 10° ENE daylight
25 Jun - 16:29:03 10° NW 16:38:41 69° NNE 16:47:59 10° ESE daylight
25 Jun - 18:34:33 10° WNW 18:43:16 43° SW 18:51:49 10° SSE daylight
26 Jun - 07:47:29 10° SSE 07:53:25 17° ESE 07:59:15 10° E daylight
26 Jun - 09:47:10 10° SW 09:57:10 66° SE 10:06:56 10° ENE daylight
26 Jun - 11:52:43 10° W 12:02:32 55° NNW 12:12:04 10° NE daylight
26 Jun - 14:00:05 10° WNW 14:09:18 42° N 14:18:12 10° ENE daylight
26 Jun - 16:06:06 10° NW 16:15:44 66° NNE 16:25:02 10° ESE daylight
26 Jun - 18:11:32 10° WNW 18:20:26 47° SW 18:29:06 10° SSE daylight
27 Jun - 07:25:14 10° SSE 07:30:34 16° ESE 07:35:50 10° E daylight
27 Jun - 09:24:19 10° SW 09:34:15 63° SE 09:43:59 10° ENE daylight
27 Jun - 11:29:39 10° W 11:39:31 57° NNW 11:49:07 10° NE daylight
27 Jun - 13:37:01 10° WNW 13:46:16 42° N 13:55:12 10° ENE daylight
27 Jun - 15:43:08 10° NW 15:52:47 63° NNE 16:02:03 10° ESE daylight
27 Jun - 17:48:32 10° WNW 17:57:34 50° SW 18:06:22 10° SSE daylight
28 Jun - 07:03:07 10° SSE 07:07:43 14° ESE 07:12:17 10° E daylight
28 Jun - 09:01:28 10° SSW 09:11:20 59° SE 09:21:01 10° ENE daylight
28 Jun - 11:06:36 10° WSW 11:16:31 59° NNW 11:26:12 10° NE daylight
28 Jun - 13:13:56 10° WNW 13:23:13 42° N 13:32:11 10° ENE daylight
28 Jun - 15:20:10 10° NW 15:29:48 61° NNE 15:39:05 10° ESE daylight
28 Jun - 17:25:32 10° WNW 17:34:42 53° SW 17:43:36 10° SSE daylight
28 Jun - 19:36:28 10° WSW 19:37:58 10° WSW 19:39:28 10° SW daylight
29 Jun - 06:41:12 10° SE 06:44:53 12° ESE 06:48:32 10° E daylight
29 Jun - 08:38:37 10° SSW 08:48:26 56° SE 08:58:03 10° ENE daylight
29 Jun - 10:43:32 10° WSW 10:53:31 61° NNW 11:03:16 10° NE daylight
29 Jun - 12:50:52 10° WNW 13:00:10 42° N 13:09:10 10° ENE daylight
29 Jun - 14:57:11 10° NW 15:06:50 59° NNE 15:16:06 10° ESE daylight
29 Jun - 17:02:32 10° WNW 17:11:50 57° SW 17:20:51 10° SSE daylight
29 Jun - 19:12:03 10° W 19:15:10 12° WSW 19:18:17 10° SW daylight
30 Jun - 06:19:42 10° SE 06:22:03 11° ESE 06:24:23 10° ESE daylight
30 Jun - 08:15:49 10° SSW 08:25:31 52° SE 08:35:04 10° ENE daylight
30 Jun - 10:20:29 10° WSW 10:30:31 64° NNW 10:40:20 10° NE daylight
30 Jun - 12:27:46 10° WNW 12:37:07 42° N 12:46:10 10° ENE daylight
30 Jun - 14:34:12 10° NW 14:43:50 57° NNE 14:53:07 10° E daylight
30 Jun - 16:39:33 10° WNW 16:48:58 61° SW 16:58:04 10° SE daylight
30 Jun - 18:48:15 10° W 18:52:22 14° WSW 18:56:27 10° SSW daylight
01 Jul - 07:53:01 10° SSW 08:02:37 49° SE 08:12:05 10° ENE daylight
01 Jul - 09:57:26 10° WSW 10:07:31 67° NNW 10:17:24 10° NE daylight
01 Jul - 12:04:41 10° WNW 12:14:04 42° N 12:23:09 10° ENE daylight
01 Jul - 14:11:13 10° NW 14:20:51 55° NNE 14:30:06 10° E daylight
01 Jul - 16:16:34 10° WNW 16:26:05 65° SW 16:35:16 10° SE daylight
01 Jul - 18:24:41 10° W 18:29:34 15° WSW 18:34:23 10° SSW daylight
02 Jul - 07:30:15 10° SSW 07:39:43 46° SE 07:49:05 10° ENE daylight
02 Jul - 09:34:24 10° WSW 09:44:32 69° NNW 09:54:28 10° NE daylight
02 Jul - 11:41:36 10° WNW 11:51:01 43° N 12:00:10 10° ENE daylight
02 Jul - 13:48:13 10° NW 13:57:51 53° NNE 14:07:06 10° E daylight
02 Jul - 15:53:36 10° WNW 16:03:12 69° SW 16:12:27 10° SE daylight
02 Jul - 18:01:15 10° W 18:06:45 17° WSW 18:12:11 10° SSW daylight
03 Jul - 07:07:29 10° SSW 07:16:49 43° SE 07:26:04 10° ENE daylight
03 Jul - 09:11:24 10° WSW 09:21:33 72° NNW 09:31:31 10° NE daylight
03 Jul - 11:18:30 10° WNW 11:27:58 43° N 11:37:10 10° ENE daylight
03 Jul - 13:25:13 10° WNW 13:34:50 52° NNE 13:44:05 10° E daylight
03 Jul - 15:30:37 10° WNW 15:40:18 73° SW 15:49:37 10° SE daylight
03 Jul - 17:37:54 10° W 17:43:56 19° SW 17:49:53 10° SSW daylight
04 Jul - 06:44:45 10° SSW 06:53:56 40° SE 07:03:02 10° ENE daylight
04 Jul - 08:48:23 10° WSW 08:58:34 75° NNW 09:08:35 10° NE daylight
04 Jul - 10:55:25 10° WNW 11:04:55 44° N 11:14:10 10° ENE daylight
04 Jul - 13:02:13 10° WNW 13:11:50 50° NNE 13:21:05 10° E daylight
04 Jul - 15:07:38 10° WNW 15:17:24 77° SW 15:26:47 10° SE daylight
04 Jul - 17:14:37 10° W 17:21:07 21° SW 17:27:31 10° S daylight
